This is the latest recevied weather packets stored in our database for station/object WD7OO. If no packets are shown the sender has not sent any weather packets the latest 10 day(s).
| Time | Temp. | Humidity | Pressure | Rain* | Wind** | Luminosity | Snow |
|---|---|---|---|---|---|---|---|
| 1777562185 | 9.44° C | 69% | 1017.2 hPa | 0 mm | - | 118 W/m² | - |
| 1777561882 | 10° C | 71% | 1017.5 hPa | 0 mm | - | 851 W/m² | - |
| 1777561579 | 9.44° C | 74% | 1017.3 hPa | 0 mm | - | 865 W/m² | - |
| 1777561275 | 10° C | 71% | 1017.4 hPa | 0 mm | - | 856 W/m² | - |
| 1777560975 | 10° C | 75% | 1017.3 hPa | 0 mm | - | 569 W/m² | - |
| 1777560671 | 9.44° C | 75% | 1017.5 hPa | 0 mm | - | 140 W/m² | - |
| 1777560368 | 9.44° C | 79% | 1017.5 hPa | 0 mm | - | 804 W/m² | - |
| 1777560066 | 8.33° C | 80% | 1017.2 hPa | 0 mm | - | 727 W/m² | - |
| 1777559762 | 8.89° C | 78% | 1017.5 hPa | 0 mm | - | 171 W/m² | - |
| 1777559459 | 8.89° C | 80% | 1017.3 hPa | 0 mm | - | 775 W/m² | - |
| 1777559156 | 8.89° C | 81% | 1017.2 hPa | 0 mm | - | 648 W/m² | - |
| 1777558850 | 8.33° C | 83% | 1017.3 hPa | 0 mm | - | 649 W/m² | - |
| 1777558546 | 7.78° C | 85% | 1017.5 hPa | 0 mm | - | 191 W/m² | - |
| 1777558242 | 7.78° C | 85% | 1017.5 hPa | 0 mm | - | 229 W/m² | - |
| 1777557938 | 8.33° C | 84% | 1017.6 hPa | 0 mm | - | 127 W/m² | - |
| 1777557636 | 7.78° C | 85% | 1017.6 hPa | 0 mm | - | 279 W/m² | - |
| 1777557332 | 7.22° C | 86% | 1017.4 hPa | 0 mm | - | 510 W/m² | - |
| 1777557028 | 7.22° C | 87% | 1017.4 hPa | 0 mm | - | 142 W/m² | - |
| 1777556724 | 6.67° C | 89% | 1017.4 hPa | 0 mm | - | 572 W/m² | - |
| 1777556421 | 6.67° C | 89% | 1017.4 hPa | 0 mm | - | 197 W/m² | - |
| 1777556121 | 6.67° C | 90% | 1017.6 hPa | 0 mm | - | 170 W/m² | - |
| 1777555816 | 6.11° C | 91% | 1017.7 hPa | 0 mm | - | 178 W/m² | - |
| 1777555512 | 6.11° C | 94% | 1017.5 hPa | 0 mm | - | 226 W/m² | - |
| 1777555209 | 5.56° C | 95% | 1017.4 hPa | 0 mm | - | 164 W/m² | - |
| 1777554906 | 5.56° C | 97% | 1017.5 hPa | 0 mm | - | 165 W/m² | - |
* Rain latest hour (hover to see other rain measurements)
** Current wind speed in m/s (hover to see current wind gust speed)